Terminal Aerodrome Forecast
Issued by NWS

Home | Current Version | Previous Version | Text Only | Print | Product List | Glossary On
Versions: 1 2 3 4 5 6 7 8 9 10 11 12 13 14
000
FTUS46 KMFR 020520
TAFLMT
TAF
KLMT 020520Z 0206/0306 VRB03KT 3SM FU SCT060
     FM021000 VRB03KT 5SM FU SCT060
     FM030000 31011KT 1SM FU VCTS BKN060CB
     FM030500 VRB03KT 4SM FU VCTS BKN060CB=

USA.gov is the U.S. government's official web portal to all federal, state and local government web resources and services.